Time,TemperatureF,DewpointF,PressureIn,WindDirection,WindDirectionDegrees,WindSpeedMPH,WindSpeedGustMPH,Humidity,HourlyPrecipIn,Conditions,Clouds,dailyrainin,SoftwareType,DateUTC
2013-06-04 00:01:00,70.0,15.0,29.66,North,0,0.0,0.0,12,0.00,,,0.00,,2013-06-04 07:01:00,
2013-06-04 00:22:00,69.0,14.0,29.66,North,0,0.0,0.0,12,0.00,,,0.00,,2013-06-04 07:22:00,
2013-06-04 00:32:00,69.0,14.0,29.62,North,0,0.0,0.0,12,0.00,,,0.00,,2013-06-04 07:32:00,
2013-06-04 00:52:00,69.0,14.0,29.62,North,0,0.0,0.0,12,0.00,,,0.00,,2013-06-04 07:52:00,
2013-06-04 01:02:00,68.0,14.0,29.62,North,0,0.0,0.0,12,0.00,,,0.00,,2013-06-04 08:02:00,
2013-06-04 01:11:00,68.0,14.0,29.62,North,0,0.0,0.0,12,0.00,,,0.00,,2013-06-04 08:11:00,
2013-06-04 01:22:00,68.0,14.0,29.62,North,0,0.0,0.0,12,0.00,,,0.00,,2013-06-04 08:22:00,
2013-06-04 01:32:00,67.0,13.0,29.62,North,0,0.0,0.0,12,0.00,,,0.00,,2013-06-04 08:32:00,
2013-06-04 01:52:00,67.0,13.0,29.62,North,0,0.0,0.0,12,0.00,,,0.00,,2013-06-04 08:52:00,
2013-06-04 02:01:00,67.0,13.0,29.62,North,0,0.0,0.0,12,0.00,,,0.00,,2013-06-04 09:01:00,
2013-06-04 02:22:00,66.0,12.0,29.62,North,0,0.0,0.0,12,0.00,,,0.00,,2013-06-04 09:22:00,
2013-06-04 02:32:00,66.0,14.0,29.62,North,0,0.0,0.0,13,0.00,,,0.00,,2013-06-04 09:32:00,
2013-06-04 02:53:00,65.0,13.0,29.62,North,0,0.0,0.0,13,0.00,,,0.00,,2013-06-04 09:53:00,
2013-06-04 03:02:00,65.0,13.0,29.62,North,0,0.0,0.0,13,0.00,,,0.00,,2013-06-04 10:02:00,
2013-06-04 03:32:00,65.0,13.0,29.62,North,0,0.0,0.0,13,0.00,,,0.00,,2013-06-04 10:32:00,
2013-06-04 03:42:00,64.0,12.0,29.62,North,0,0.0,0.0,13,0.00,,,0.00,,2013-06-04 10:42:00,
2013-06-04 03:52:00,64.0,12.0,29.62,North,0,0.0,0.0,13,0.00,,,0.00,,2013-06-04 10:52:00,
2013-06-04 04:02:00,64.0,12.0,29.62,North,0,0.0,0.0,13,0.00,,,0.00,,2013-06-04 11:02:00,
2013-06-04 04:22:00,64.0,12.0,29.62,North,0,0.0,0.0,13,0.00,,,0.00,,2013-06-04 11:22:00,
2013-06-04 04:32:00,63.0,11.0,29.62,North,0,0.0,0.0,13,0.00,,,0.00,,2013-06-04 11:32:00,
2013-06-04 04:52:00,63.0,11.0,29.62,North,0,0.0,0.0,13,0.00,,,0.00,,2013-06-04 11:52:00,
2013-06-04 05:01:00,63.0,11.0,29.62,North,0,0.0,0.0,13,0.00,,,0.00,,2013-06-04 12:01:00,
2013-06-04 05:22:00,63.0,11.0,29.62,North,0,0.0,0.0,13,0.00,,,0.00,,2013-06-04 12:22:00,
2013-06-04 05:32:00,63.0,11.0,29.66,North,0,0.0,0.0,13,0.00,,,0.00,,2013-06-04 12:32:00,
2013-06-04 05:52:00,62.0,12.0,29.66,North,0,0.0,0.0,14,0.00,,,0.00,,2013-06-04 12:52:00,
2013-06-04 06:02:00,62.0,12.0,29.66,North,0,0.0,0.0,14,0.00,,,0.00,,2013-06-04 13:02:00,
2013-06-04 06:22:00,62.0,15.0,29.66,North,0,0.0,0.0,16,0.00,,,0.00,,2013-06-04 13:22:00,
2013-06-04 06:32:00,63.0,16.0,29.66,North,0,0.0,0.0,16,0.00,,,0.00,,2013-06-04 13:32:00,
2013-06-04 06:52:00,63.0,16.0,29.66,North,0,0.0,0.0,16,0.00,,,0.00,,2013-06-04 13:52:00,
2013-06-04 07:01:00,64.0,17.0,29.66,North,0,0.0,0.0,16,0.00,,,0.00,,2013-06-04 14:01:00,
2013-06-04 07:22:00,65.0,16.0,29.66,North,0,0.0,0.0,15,0.00,,,0.00,,2013-06-04 14:22:00,
2013-06-04 07:32:00,67.0,18.0,29.66,North,0,0.0,0.0,15,0.00,,,0.00,,2013-06-04 14:32:00,
2013-06-04 07:52:00,70.0,19.0,29.66,North,0,0.0,0.0,14,0.00,,,0.00,,2013-06-04 14:52:00,
2013-06-04 08:02:00,73.0,21.0,29.66,North,0,0.0,0.0,14,0.00,,,0.00,,2013-06-04 15:02:00,
2013-06-04 08:21:00,77.0,22.0,29.66,North,0,0.0,0.0,13,0.00,,,0.00,,2013-06-04 15:21:00,
2013-06-04 08:33:00,81.0,24.0,29.69,North,0,0.0,0.0,12,0.00,,,0.00,,2013-06-04 15:33:00,
2013-06-04 08:53:00,83.0,23.0,29.66,North,0,0.0,0.0,11,0.00,,,0.00,,2013-06-04 15:53:00,
2013-06-04 09:03:00,85.0,25.0,29.66,North,0,0.0,0.0,11,0.04,,,0.04,,2013-06-04 16:03:00,
2013-06-04 09:22:00,87.0,26.0,29.66,North,0,0.0,0.0,11,0.04,,,0.04,,2013-06-04 16:22:00,
2013-06-04 09:32:00,89.0,25.0,29.66,North,0,0.0,0.0,10,0.04,,,0.04,,2013-06-04 16:32:00,
2013-06-04 09:52:00,91.0,27.0,29.66,North,0,0.0,0.0,10,0.04,,,0.04,,2013-06-04 16:52:00,
2013-06-04 10:02:00,91.0,27.0,29.66,North,0,0.0,0.0,10,0.00,,,0.04,,2013-06-04 17:02:00,
2013-06-04 10:22:00,93.0,26.0,29.66,North,0,0.0,0.0,9,0.00,,,0.04,,2013-06-04 17:22:00,
2013-06-04 10:32:00,93.0,26.0,29.66,North,0,0.0,0.0,9,0.00,,,0.04,,2013-06-04 17:32:00,
2013-06-04 10:52:00,94.0,27.0,29.66,North,0,0.0,0.0,9,0.00,,,0.04,,2013-06-04 17:52:00,
2013-06-04 11:01:00,95.0,27.0,29.66,North,0,0.0,0.0,9,0.00,,,0.04,,2013-06-04 18:01:00,
2013-06-04 11:22:00,95.0,27.0,29.66,North,0,0.0,0.0,9,0.00,,,0.04,,2013-06-04 18:22:00,
2013-06-04 11:32:00,96.0,28.0,29.66,North,0,0.0,0.0,9,0.00,,,0.04,,2013-06-04 18:32:00,
2013-06-04 11:52:00,96.0,28.0,29.66,North,0,0.0,0.0,9,0.00,,,0.04,,2013-06-04 18:52:00,
2013-06-04 12:02:00,94.0,27.0,29.66,North,0,0.0,0.0,9,0.00,,,0.04,,2013-06-04 19:02:00,
2013-06-04 12:11:00,94.0,27.0,29.66,North,0,0.0,0.0,9,0.00,,,0.04,,2013-06-04 19:11:00,
2013-06-04 12:22:00,94.0,27.0,29.66,North,0,0.0,0.0,9,0.00,,,0.04,,2013-06-04 19:22:00,
2013-06-04 12:32:00,95.0,27.0,29.66,North,0,0.0,0.0,9,0.00,,,0.04,,2013-06-04 19:32:00,
2013-06-04 12:42:00,95.0,27.0,29.66,North,0,0.0,0.0,9,0.00,,,0.04,,2013-06-04 19:42:00,
2013-06-04 12:52:00,95.0,27.0,29.66,North,0,0.0,0.0,9,0.00,,,0.04,,2013-06-04 19:52:00,
2013-06-04 13:02:00,95.0,27.0,29.66,North,0,0.0,0.0,9,0.00,,,0.04,,2013-06-04 20:02:00,
2013-06-04 13:12:00,95.0,27.0,29.66,North,0,0.0,0.0,9,0.00,,,0.04,,2013-06-04 20:12:00,
2013-06-04 13:22:00,96.0,28.0,29.62,North,0,0.0,0.0,9,0.00,,,0.04,,2013-06-04 20:22:00,
2013-06-04 13:31:00,97.0,26.0,29.62,North,0,0.0,0.0,8,0.00,,,0.04,,2013-06-04 20:31:00,
2013-06-04 13:42:00,97.0,26.0,29.62,North,0,0.0,0.0,8,0.00,,,0.04,,2013-06-04 20:42:00,
2013-06-04 13:52:00,97.0,26.0,29.62,North,0,0.0,0.0,8,0.00,,,0.04,,2013-06-04 20:52:00,
2013-06-04 14:01:00,97.0,29.0,29.62,North,0,0.0,0.0,9,0.00,,,0.04,,2013-06-04 21:01:00,
2013-06-04 14:12:00,97.0,29.0,29.62,North,0,0.0,0.0,9,0.00,,,0.04,,2013-06-04 21:12:00,
2013-06-04 14:22:00,97.0,26.0,29.59,North,0,0.0,0.0,8,0.00,,,0.04,,2013-06-04 21:22:00,
2013-06-04 14:33:00,97.0,26.0,29.59,North,0,0.0,0.0,8,0.00,,,0.04,,2013-06-04 21:33:00,
2013-06-04 14:42:00,97.0,26.0,29.59,North,0,0.0,0.0,8,0.00,,,0.04,,2013-06-04 21:42:00,
2013-06-04 14:53:00,96.0,28.0,29.59,North,0,0.0,0.0,9,0.00,,,0.04,,2013-06-04 21:53:00,
2013-06-04 15:02:00,96.0,28.0,29.59,North,0,0.0,0.0,9,0.00,,,0.04,,2013-06-04 22:02:00,
2013-06-04 15:12:00,96.0,28.0,29.59,North,0,0.0,0.0,9,0.00,,,0.04,,2013-06-04 22:12:00,
2013-06-04 15:22:00,96.0,28.0,29.59,North,0,0.0,0.0,9,0.00,,,0.04,,2013-06-04 22:22:00,
2013-06-04 15:32:00,95.0,27.0,29.59,North,0,0.0,0.0,9,0.00,,,0.04,,2013-06-04 22:32:00,
2013-06-04 15:42:00,95.0,27.0,29.59,North,0,0.0,0.0,9,0.00,,,0.04,,2013-06-04 22:42:00,
2013-06-04 15:52:00,95.0,27.0,29.56,North,0,0.0,0.0,9,0.00,,,0.04,,2013-06-04 22:52:00,
2013-06-04 16:02:00,94.0,27.0,29.59,North,0,0.0,0.0,9,0.00,,,0.04,,2013-06-04 23:02:00,
2013-06-04 16:12:00,94.0,27.0,29.59,North,0,0.0,0.0,9,0.00,,,0.04,,2013-06-04 23:12:00,
2013-06-04 16:22:00,94.0,27.0,29.59,North,0,0.0,0.0,9,0.00,,,0.04,,2013-06-04 23:22:00,
2013-06-04 16:32:00,93.0,26.0,29.59,North,0,0.0,0.0,9,0.00,,,0.04,,2013-06-04 23:32:00,
2013-06-04 16:42:00,93.0,26.0,29.59,North,0,0.0,0.0,9,0.00,,,0.04,,2013-06-04 23:42:00,
2013-06-04 16:52:00,93.0,26.0,29.59,North,0,0.0,0.0,9,0.00,,,0.04,,2013-06-04 23:52:00,
2013-06-04 17:01:00,92.0,25.0,29.59,North,0,0.0,0.0,9,0.00,,,0.04,,2013-06-05 00:01:00,
2013-06-04 17:11:00,92.0,25.0,29.59,North,0,0.0,0.0,9,0.00,,,0.04,,2013-06-05 00:11:00,
2013-06-04 17:22:00,91.0,27.0,29.59,North,0,0.0,0.0,10,0.00,,,0.04,,2013-06-05 00:22:00,
2013-06-04 17:32:00,90.0,26.0,29.59,North,0,0.0,0.0,10,0.00,,,0.04,,2013-06-05 00:32:00,
2013-06-04 17:42:00,90.0,26.0,29.59,North,0,0.0,0.0,10,0.00,,,0.04,,2013-06-05 00:42:00,
2013-06-04 17:52:00,90.0,26.0,29.59,North,0,0.0,0.0,10,0.00,,,0.04,,2013-06-05 00:52:00,
2013-06-04 18:01:00,89.0,25.0,29.56,North,0,0.0,0.0,10,0.00,,,0.04,,2013-06-05 01:01:00,
2013-06-04 18:11:00,89.0,25.0,29.56,North,0,0.0,0.0,10,0.00,,,0.04,,2013-06-05 01:11:00,
2013-06-04 18:22:00,88.0,25.0,29.59,North,0,0.0,0.0,10,0.00,,,0.04,,2013-06-05 01:22:00,
2013-06-04 18:32:00,88.0,27.0,29.59,North,0,0.0,0.0,11,0.00,,,0.04,,2013-06-05 01:32:00,
2013-06-04 18:42:00,88.0,27.0,29.59,North,0,0.0,0.0,11,0.00,,,0.04,,2013-06-05 01:42:00,
2013-06-04 18:52:00,87.0,26.0,29.59,North,0,0.0,0.0,11,0.00,,,0.04,,2013-06-05 01:52:00,
2013-06-04 19:02:00,86.0,25.0,29.59,North,0,0.0,0.0,11,0.00,,,0.04,,2013-06-05 02:02:00,
2013-06-04 19:21:00,85.0,25.0,29.59,North,0,0.0,0.0,11,0.00,,,0.04,,2013-06-05 02:21:00,
2013-06-04 19:31:00,84.0,24.0,29.59,North,0,0.0,0.0,11,0.00,,,0.04,,2013-06-05 02:31:00,
2013-06-04 19:41:00,83.0,23.0,29.56,North,0,0.0,0.0,11,0.00,,,0.04,,2013-06-05 02:41:00,
2013-06-04 19:52:00,83.0,23.0,29.56,North,0,0.0,0.0,11,0.00,,,0.04,,2013-06-05 02:52:00,
2013-06-04 20:02:00,82.0,22.0,29.56,North,0,0.0,0.0,11,0.00,,,0.04,,2013-06-05 03:02:00,
2013-06-04 20:12:00,81.0,24.0,29.59,North,0,0.0,0.0,12,0.00,,,0.04,,2013-06-05 03:12:00,
2013-06-04 20:22:00,81.0,24.0,29.59,North,0,0.0,0.0,12,0.00,,,0.04,,2013-06-05 03:22:00,
2013-06-04 20:32:00,80.0,23.0,29.62,North,0,0.0,0.0,12,0.00,,,0.04,,2013-06-05 03:32:00,
2013-06-04 20:43:00,80.0,23.0,29.62,North,0,0.0,0.0,12,0.00,,,0.04,,2013-06-05 03:43:00,
2013-06-04 20:53:00,80.0,23.0,29.62,North,0,0.0,0.0,12,0.00,,,0.04,,2013-06-05 03:53:00,
2013-06-04 21:02:00,78.0,23.0,29.62,North,0,0.0,0.0,13,0.00,,,0.04,,2013-06-05 04:02:00,
2013-06-04 21:12:00,78.0,23.0,29.62,North,0,0.0,0.0,13,0.00,,,0.04,,2013-06-05 04:12:00,
2013-06-04 21:22:00,77.0,16.0,29.66,North,0,0.0,0.0,10,0.00,,,0.04,,2013-06-05 04:22:00,
2013-06-04 21:32:00,76.0,16.0,29.66,North,0,0.0,0.0,10,0.00,,,0.04,,2013-06-05 04:32:00,
2013-06-04 21:53:00,76.0,16.0,29.66,North,0,0.0,0.0,10,0.00,,,0.04,,2013-06-05 04:53:00,
2013-06-04 22:02:00,75.0,17.0,29.66,North,0,0.0,0.0,11,0.00,,,0.04,,2013-06-05 05:02:00,
2013-06-04 22:22:00,74.0,16.0,29.66,North,0,0.0,0.0,11,0.00,,,0.04,,2013-06-05 05:22:00,
2013-06-04 22:32:00,73.0,15.0,29.66,North,0,0.0,0.0,11,0.00,,,0.04,,2013-06-05 05:32:00,
2013-06-04 22:52:00,73.0,15.0,29.66,North,0,0.0,0.0,11,0.00,,,0.04,,2013-06-05 05:52:00,
2013-06-04 23:02:00,72.0,15.0,29.62,North,0,0.0,0.0,11,0.00,,,0.04,,2013-06-05 06:02:00,
2013-06-04 23:22:00,71.0,16.0,29.66,North,0,0.0,0.0,12,0.00,,,0.04,,2013-06-05 06:22:00,
2013-06-04 23:32:00,70.0,15.0,29.66,North,0,0.0,0.0,12,0.00,,,0.04,,2013-06-05 06:32:00,
2013-06-04 23:52:00,70.0,15.0,29.62,North,0,0.0,0.0,12,0.00,,,0.04,,2013-06-05 06:52:00,